Location: Cherry Springs State Park
(41.6616°N, 77.8240°W)
Time: 03:08:07
(UTC-04:00)

Amateur Radio Satellites - All Passes

Search period start: 06 July 2015 02:38
Search period end: 07 July 2015 02:38
Location: Cherry Springs State Park, 41.6616°N, 77.8240°W

Satellite Date Start Highest point End Downlink Frequencies (MHz)
Time Altitude Azimuth
STARS 06 Jul 02:38:39 02:41:46 20° 66° (ENE) 02:45:00 437.465
SWISSCUBE 06 Jul 02:54:01 02:58:13 30° 265° (W) 03:02:25 437.505
Cosmos 2491 06 Jul 02:59:30 03:08:19 86° 82° (E) 03:17:03 435.465 / 435.565
ITUPSAT 1 06 Jul 03:00:10 03:04:22 29° 265° (W) 03:08:30 437.325
Oscar 19 06 Jul 03:00:21 03:05:29 76° 286° (WNW) 03:10:37 437.125/150
ITAMSAT 1 06 Jul 03:15:34 03:20:30 42° 98° (E) 03:25:26 435.822/435.867
Gurwin Techsat 1B 06 Jul 03:18:47 03:23:55 48° 99° (E) 03:29:04 435.225
KKS-1 06 Jul 03:25:30 03:29:58 82° 259° (W) 03:34:27 437.445
AIST 1 06 Jul 03:27:03 03:31:23 63° 264° (W) 03:35:37
YUBILEINY 06 Jul 03:32:33 03:41:01 62° 92° (E) 03:49:34 435.215
JAS-2 06 Jul 03:34:03 03:39:26 25° 92° (E) 03:45:27 435.910
AO-7 06 Jul 03:49:32 03:54:55 19° 89° (E) 04:00:42 29.400- 29.500
MOZHAYETS 4 06 Jul 03:55:47 03:59:13 22° 67° (ENE) 04:02:47
STARS 06 Jul 04:13:50 04:17:59 39° 262° (W) 04:22:07 437.465
HORYU 2 06 Jul 04:18:22 04:21:57 24° 94° (E) 04:25:37 437.375
RS-15 06 Jul 04:22:22 04:32:55 49° 317° (NW) 04:43:47 29.354- 29.394
Oscar 19 06 Jul 04:43:37 04:44:04 10° 302° (WNW) 04:44:12 437.125/150
ITAMSAT 1 06 Jul 04:55:32 04:59:49 25° 295° (WNW) 05:03:57 435.822/435.867
Cosmos 2491 06 Jul 04:58:20 05:04:11 19° 280° (W) 05:09:33 435.465 / 435.565
Gurwin Techsat 1B 06 Jul 04:59:28 05:03:38 23° 295° (WNW) 05:07:39 435.225
JAS-2 06 Jul 05:18:16 05:24:51 63° 287° (WNW) 05:32:09 435.910
YUBILEINY 06 Jul 05:31:05 05:38:31 30° 294° (WNW) 05:45:46 435.215
MOZHAYETS 4 06 Jul 05:31:57 05:36:14 38° 263° (W) 05:40:32
AO-7 06 Jul 05:40:27 05:48:53 87° 288° (WNW) 05:57:14 29.400- 29.500
HORYU 2 06 Jul 05:54:38 05:58:39 32° 290° (WNW) 06:02:35 437.375
Cosmos 2504 06 Jul 05:58:00 06:04:44 57° 92° (E) 06:11:30 435.465 / 435.565
CUBESAT XI-V 06 Jul 06:03:14 06:07:34 39° 71° (ENE) 06:11:59 437.345
STRAND 1 06 Jul 06:04:12 06:07:24 17° 63° (ENE) 06:10:48 437.568
CUTE-I 06 Jul 06:06:24 06:07:26 11° 86° (E) 06:08:52 437.470
VERMONT LUNAR 06 Jul 06:19:13 06:19:58 11° 148° (SSE) 06:20:48 437.305
Cubesat XI-IV 06 Jul 06:38:36 06:42:47 24° 92° (E) 06:47:06 437.490
RS-15 06 Jul 06:40:36 06:49:05 23° 349° (N) 06:57:42 29.354- 29.394
JAS-2 06 Jul 07:06:36 07:09:02 12° 303° (WNW) 07:11:06 435.910
PRISM 06 Jul 07:06:57 07:11:01 57° 74° (ENE) 07:15:10 437.425
BEESAT 3 06 Jul 07:09:02 07:12:58 51° 119° (ESE) 07:16:58 437.485
AIST 2 06 Jul 07:18:55 07:20:41 13° 110° (ESE) 07:22:40 435.215
BEESAT 2 06 Jul 07:23:45 07:27:46 57° 119° (ESE) 07:31:51 435.950
DANDE 06 Jul 07:26:07 07:31:20 24° 94° (E) 07:35:51 436.750
AO-7 06 Jul 07:34:41 07:40:41 22° 308° (NW) 07:46:24 29.400- 29.500
ISS 06 Jul 07:37:38 07:40:36 34° 137° (SE) 07:43:35 145.825
O/OREOS (USA 219) 06 Jul 07:40:43 07:45:09 76° 110° (ESE) 07:49:38 437.305
STRAND 1 06 Jul 07:41:03 07:46:09 63° 259° (WSW) 07:51:18 437.568
CUBESAT XI-V 06 Jul 07:41:29 07:45:11 22° 268° (W) 07:48:47 437.345
CUTE-I 06 Jul 07:43:00 07:48:24 89° 89° (E) 07:53:46 437.470
CUSAT 1 06 Jul 07:51:11 07:57:14 49° 98° (E) 08:01:54 437.405
Cosmos 2504 06 Jul 07:51:54 07:57:28 24° 293° (WNW) 08:02:51 435.465 / 435.565
VERMONT LUNAR 06 Jul 07:53:27 07:56:22 39° 163° (SSE) 07:59:19 437.305
M-CUBED/EXP-1 PRIME 06 Jul 08:08:27 08:11:12 25° 64° (ENE) 08:14:06 437.505
GONETS M04 06 Jul 08:11:18 08:17:48 25° 82° (E) 08:24:37
Cubesat XI-IV 06 Jul 08:18:01 08:23:08 45° 290° (WNW) 08:28:12 437.490
BRITE-PL 06 Jul 08:26:33 08:30:06 25° 94° (E) 08:33:35 437.365/2234.400
PHONESAT 2.4 06 Jul 08:38:00 08:40:47 23° 154° (SSE) 08:43:35 2401.200-2431.200
PRISM 06 Jul 08:45:07 08:46:54 12° 271° (W) 08:48:29 437.425
BEESAT 3 06 Jul 08:48:15 08:51:13 19° 317° (NW) 08:54:09 437.485
AIST 2 06 Jul 08:54:34 08:58:47 65° 305° (NW) 09:03:03 435.215
SEEDS 06 Jul 08:55:45 08:57:57 14° 89° (E) 09:00:20 437.485
RS-15 06 Jul 08:57:15 09:06:38 28° 24° (NNE) 09:16:34 29.354- 29.394
AAUSAT CUBESAT 2 06 Jul 09:03:04 09:04:05 11° 88° (E) 09:05:22 437.432
BEESAT 2 06 Jul 09:03:22 09:06:13 17° 318° (NW) 09:08:59 435.950
AUBIESAT-1 06 Jul 09:06:18 09:09:36 64° 254° (WSW) 09:13:05 437.475
DANDE 06 Jul 09:07:35 09:14:27 52° 282° (WNW) 09:19:40 436.750
ISS 06 Jul 09:14:00 09:16:59 32° 335° (NNW) 09:19:58 145.825
O/OREOS (USA 219) 06 Jul 09:23:08 09:25:14 13° 311° (NW) 09:27:09 437.305
CUTE-I 06 Jul 09:25:15 09:27:48 13° 301° (WNW) 09:30:05 437.470
COMPASS 1 06 Jul 09:28:48 09:32:20 26° 94° (E) 09:35:55 437.405
GOMX 1 06 Jul 09:29:50 09:34:03 78° 102° (ESE) 09:38:11 467.674
VERMONT LUNAR 06 Jul 09:30:01 09:33:08 73° 178° (S) 09:36:15 437.305
Oscar 11 06 Jul 09:34:51 09:36:13 12° 88° (E) 09:37:51 145.826/435.025
CUSAT 1 06 Jul 09:35:23 09:39:51 21° 287° (WNW) 09:43:25 437.405
CUBEBUG 2 06 Jul 09:36:31 09:37:44 11° 88° (E) 09:39:14 437.445
M-CUBED/EXP-1 PRIME 06 Jul 09:43:46 09:46:07 17° 262° (W) 09:48:26 437.505
CUTE 1.7 + AOD 2 06 Jul 09:44:40 09:48:56 62° 100° (E) 09:53:12 437.475
HO-68 06 Jul 09:45:21 09:52:27 62° 102° (ESE) 09:59:32 435.675
CANX-2 06 Jul 09:48:19 09:52:37 77° 102° (ESE) 09:56:55 2200.000
UNISAT 6 06 Jul 10:01:15 10:04:27 21° 68° (ENE) 10:07:44 437.425
DOVE 4 06 Jul 10:04:31 10:08:39 70° 284° (WNW) 10:12:48 437.250
FUNcube-1 06 Jul 10:04:47 10:06:59 14° 90° (E) 10:09:24 145.935
BRITE-PL 06 Jul 10:05:03 10:08:38 25° 291° (WNW) 10:12:02 437.365/2234.400
GONETS M04 06 Jul 10:05:11 10:13:58 70° 281° (W) 10:22:42
PHONESAT 2.4 06 Jul 10:15:05 10:18:29 62° 169° (S) 10:21:54 2401.200-2431.200
UWE-3 06 Jul 10:21:29 10:25:10 29° 96° (E) 10:28:57 435.000/436.395/437.385
QB50P1 06 Jul 10:24:31 10:27:04 16° 66° (ENE) 10:29:46 145.935-145.965
SEEDS 06 Jul 10:29:57 10:34:05 50° 286° (WNW) 10:38:12 437.485
CINEMA 3 06 Jul 10:35:41 10:39:52 71° 283° (WNW) 10:44:06 145.822/145.860
AAUSAT CUBESAT 2 06 Jul 10:36:00 10:40:11 63° 285° (WNW) 10:44:20 437.432
AIST 2 06 Jul 10:37:10 10:38:15 11° 325° (NW) 10:39:11 435.215
NANOSAT C BR1 06 Jul 10:37:14 10:40:24 21° 68° (ENE) 10:43:41 145.865
DELFI C3 06 Jul 10:38:04 10:41:55 40° 98° (E) 10:45:46 145.870
DUCHIFAT 1 06 Jul 10:43:14 10:46:37 24° 68° (ENE) 10:50:04 145.980
ANTELSAT 06 Jul 10:44:39 10:48:52 63° 75° (ENE) 10:53:05 437.575/2403.000
DX 1 06 Jul 10:49:33 10:52:03 15° 91° (E) 10:54:42 434.975-435.025
POLYITAN 1 06 Jul 10:50:34 10:54:15 30° 70° (ENE) 10:58:00 437.675
Cosmos 2499 06 Jul 10:51:23 10:58:07 52° 92° (E) 11:05:02 435.465 / 435.565
BUGSAT 1 06 Jul 10:51:40 10:54:43 20° 68° (ENE) 10:57:51 437.445
ISS 06 Jul 10:52:10 10:54:07 15° 354° (N) 10:56:02 145.825
TIGRISAT 06 Jul 10:56:02 11:00:19 82° 77° (ENE) 11:04:35 435.000
ZACube-1 06 Jul 11:04:09 11:08:23 68° 101° (E) 11:12:41 437.345
COMPASS 1 06 Jul 11:04:22 11:07:58 27° 290° (WNW) 11:11:30 437.405
UKube-1 06 Jul 11:06:46 11:10:05 22° 94° (E) 11:13:27 .
VERMONT LUNAR 06 Jul 11:06:54 11:09:54 44° 196° (SSW) 11:12:55 437.305
HUMSAT D 06 Jul 11:06:56 11:10:36 30° 96° (E) 11:14:21 437.325/437.525
Oscar 11 06 Jul 11:08:35 11:12:54 63° 285° (WNW) 11:17:12 145.826/435.025
RS-15 06 Jul 11:10:04 11:21:45 70° 52° (NE) 11:33:55 29.354- 29.394
CUBEBUG 2 06 Jul 11:10:43 11:14:54 61° 285° (WNW) 11:19:10 437.445
QB50P2 06 Jul 11:19:22 11:23:33 65° 75° (ENE) 11:27:46 145.880/145.840
POPSAT HIP 1 06 Jul 11:19:34 11:23:45 63° 75° (ENE) 11:27:56 437.405
CUTE 1.7 + AOD 2 06 Jul 11:22:22 11:24:23 13° 296° (WNW) 11:26:13 437.475
CANX-2 06 Jul 11:26:55 11:28:00 11° 297° (WNW) 11:28:51 2200.000
HO-68 06 Jul 11:33:53 11:39:45 27° 300° (WNW) 11:45:26 435.675
AISAT 06 Jul 11:34:31 11:38:16 27° 95° (E) 11:42:02 437.250
UNISAT 6 06 Jul 11:37:11 11:41:04 33° 263° (W) 11:44:57 437.425
FUNcube-1 06 Jul 11:39:33 11:43:38 49° 286° (WNW) 11:47:48 145.935
CUBEBUG 1 06 Jul 11:46:22 11:49:29 20° 92° (E) 11:52:43 437.445
PHONESAT 2.4 06 Jul 11:52:59 11:56:24 68° 187° (S) 11:59:51 2401.200-2431.200
UWE-3 06 Jul 11:58:09 12:01:37 24° 291° (WNW) 12:05:04 435.000/436.395/437.385
QB50P1 06 Jul 11:58:31 12:02:37 46° 261° (W) 12:06:42 145.935-145.965
50 SAT 06 Jul 12:05:33 12:09:28 72° 101° (E) 12:13:24 437.505
GONETS M04 06 Jul 12:08:18 12:12:52 14° 305° (NW) 12:16:52
NANOSAT C BR1 06 Jul 12:12:13 12:16:04 33° 263° (W) 12:19:54 145.865
ESTCUBE 1 06 Jul 12:13:34 12:17:58 47° 99° (E) 12:22:19 437.505/2401.250
DELFI C3 06 Jul 12:14:00 12:16:43 17° 293° (WNW) 12:19:19 145.870
DUCHIFAT 1 06 Jul 12:18:36 12:22:19 29° 264° (W) 12:26:00 145.980
VELOX 1 06 Jul 12:22:40 12:27:07 89° 103° (ESE) 12:31:30 145.980
DX 1 06 Jul 12:24:25 12:28:37 47° 288° (WNW) 12:32:46 434.975-435.025
ANTELSAT 06 Jul 12:24:51 12:26:10 11° 272° (W) 12:27:13 437.575/2403.000
BUGSAT 1 06 Jul 12:26:05 12:29:59 35° 263° (W) 12:33:50 437.445
POLYITAN 1 06 Jul 12:26:47 12:30:12 23° 266° (W) 12:33:32 437.675
ISS 06 Jul 12:29:05 12:31:26 18° 14° (NNE) 12:33:48 145.825
Oscar 19 06 Jul 12:39:54 12:43:33 21° 64° (ENE) 12:47:22 437.125/150
SPROUT 06 Jul 12:40:15 12:43:33 22° 93° (E) 12:46:55 437.525
UKube-1 06 Jul 12:42:23 12:46:17 33° 290° (WNW) 12:50:09 .
ZACube-1 06 Jul 12:42:42 12:44:17 12° 296° (WNW) 12:45:40 437.345
HUMSAT D 06 Jul 12:42:54 12:46:13 23° 291° (WNW) 12:49:30 437.325/437.525
VERMONT LUNAR 06 Jul 12:44:50 12:46:22 13° 210° (SSW) 12:47:51 437.305
Cosmos 2499 06 Jul 12:45:47 12:51:42 27° 292° (WNW) 12:57:35 435.465 / 435.565
POPSAT HIP 1 06 Jul 12:58:44 13:00:06 11° 272° (W) 13:01:14 437.405
QB50P2 06 Jul 12:58:47 12:59:57 11° 272° (W) 13:00:52 145.880/145.840
Gurwin Techsat 1B 06 Jul 13:04:59 13:06:07 11° 58° (ENE) 13:07:33 435.225
AISAT 06 Jul 13:11:01 13:14:48 28° 292° (WNW) 13:18:29 437.250
TISAT 1 06 Jul 13:13:14 13:16:59 32° 96° (E) 13:20:45 437.305
CUBEBUG 1 06 Jul 13:21:59 13:26:00 37° 289° (WNW) 13:29:58 437.445
RS-15 06 Jul 13:23:15 13:33:38 36° 252° (WSW) 13:44:00 29.354- 29.394
PHONESAT 2.4 06 Jul 13:31:08 13:34:10 28° 203° (SSW) 13:37:12 2401.200-2431.200
YUBILEINY 06 Jul 13:42:42 13:50:07 31° 67° (ENE) 13:57:44 435.215
ESTCUBE 1 06 Jul 13:51:22 13:54:30 18° 295° (WNW) 13:57:30 437.505/2401.250
ISS 06 Jul 14:05:03 14:08:18 69° 34° (NE) 14:11:31 145.825
Cosmos 2491 06 Jul 14:07:34 14:13:10 20° 80° (E) 14:19:13 435.465 / 435.565
SPROUT 06 Jul 14:15:52 14:19:41 32° 290° (WNW) 14:23:28 437.525
Oscar 19 06 Jul 14:17:36 14:22:35 51° 260° (W) 14:27:36 437.125/150
ITAMSAT 1 06 Jul 14:33:36 14:38:45 65° 74° (ENE) 14:43:59 435.822/435.867
BEESAT 06 Jul 14:37:29 14:42:03 43° 98° (E) 14:46:37 436.000
Gurwin Techsat 1B 06 Jul 14:40:00 14:45:18 77° 75° (ENE) 14:50:39 435.225
AO-7 06 Jul 14:48:36 14:55:27 30° 57° (ENE) 15:02:29 29.400- 29.500
TISAT 1 06 Jul 14:49:21 14:52:35 22° 293° (WNW) 14:55:44 437.305
SWISSCUBE 06 Jul 14:53:17 14:58:06 69° 101° (E) 15:02:53 437.505
ITUPSAT 1 06 Jul 14:59:40 15:04:30 72° 102° (ESE) 15:09:18 437.325
HORYU 2 06 Jul 15:17:05 15:20:33 24° 67° (ENE) 15:24:06 437.375
KKS-1 06 Jul 15:17:19 15:20:24 19° 92° (E) 15:23:35 437.445
PCSat 06 Jul 15:19:28 15:24:27 40° 112° (ESE) 15:29:31 145.827
BEESAT 3 06 Jul 15:27:28 15:31:11 33° 50° (NE) 15:34:52 437.485
JAS-2 06 Jul 15:31:42 15:36:46 58° 72° (ENE) 15:42:09 435.910
YUBILEINY 06 Jul 15:38:59 15:47:33 60° 268° (W) 15:56:06 435.215
AIST 2 06 Jul 15:39:11 15:41:03 13° 37° (NE) 15:43:02 435.215
ISS 06 Jul 15:42:37 15:44:20 13° 229° (SW) 15:45:58 145.825
BEESAT 2 06 Jul 15:42:45 15:46:35 38° 51° (NE) 15:50:23 435.950
Cosmos 2504 06 Jul 15:43:48 15:48:37 18° 63° (ENE) 15:54:01 435.465 / 435.565
AIST 1 06 Jul 15:56:10 16:00:34 75° 97° (E) 16:04:59
Cosmos 2491 06 Jul 16:00:12 16:09:04 84° 279° (W) 16:17:56 435.465 / 435.565
STARS 06 Jul 16:03:08 16:07:09 35° 97° (E) 16:11:10 437.465
O/OREOS (USA 219) 06 Jul 16:12:11 16:15:07 17° 53° (NE) 16:18:12 437.305
SO-50 06 Jul 16:13:45 16:17:53 32° 115° (ESE) 16:22:13 436.795
ITAMSAT 1 06 Jul 16:15:39 16:18:49 15° 271° (W) 16:21:45 435.822/435.867
BEESAT 06 Jul 16:15:59 16:19:38 21° 294° (WNW) 16:23:10 436.000
Gurwin Techsat 1B 06 Jul 16:23:23 16:26:00 13° 273° (W) 16:28:18 435.225
SWISSCUBE 06 Jul 16:32:48 16:35:27 14° 298° (WNW) 16:37:53 437.505
ITUPSAT 1 06 Jul 16:39:19 16:41:52 14° 298° (WNW) 16:44:12 437.325
AO-7 06 Jul 16:39:25 16:47:44 67° 256° (WSW) 16:56:05 29.400- 29.500
HORYU 2 06 Jul 16:53:03 16:57:03 33° 263° (W) 17:01:02 437.375
KKS-1 06 Jul 16:53:04 16:57:14 40° 289° (WNW) 17:01:21 437.445
PCSat 06 Jul 17:03:08 17:07:59 32° 311° (NW) 17:12:48 145.827
BEESAT 3 06 Jul 17:05:44 17:08:59 23° 247° (WSW) 17:12:06 437.485
AIST 2 06 Jul 17:16:06 17:20:20 87° 56° (NE) 17:24:28 435.215
JAS-2 06 Jul 17:19:18 17:22:35 16° 272° (W) 17:25:43 435.910
BEESAT 2 06 Jul 17:21:22 17:24:26 20° 247° (WSW) 17:27:22 435.950
MOZHAYETS 4 06 Jul 17:26:26 17:30:57 48° 99° (E) 17:35:28
CUTE-I 06 Jul 17:27:00 17:30:49 21° 63° (ENE) 17:34:48 437.470
Cosmos 2504 06 Jul 17:34:16 17:41:51 87° 266° (W) 17:50:01 435.465 / 435.565
AIST 1 06 Jul 17:38:18 17:38:54 10° 295° (WNW) 17:39:12
STARS 06 Jul 17:40:00 17:43:25 22° 293° (WNW) 17:46:43 437.465
O/OREOS (USA 219) 06 Jul 17:50:30 17:54:57 54° 251° (WSW) 17:59:22 437.305
SO-50 06 Jul 17:54:01 17:58:24 35° 313° (NW) 18:02:52 436.795
Cubesat XI-IV 06 Jul 18:00:34 18:05:31 40° 69° (ENE) 18:10:32 437.490
Cosmos 2491 06 Jul 18:01:42 18:07:35 18° 302° (WNW) 18:12:59 435.465 / 435.565
GONETS M04 06 Jul 18:22:06 18:24:31 12° 52° (NE) 18:27:37
CUSAT 1 06 Jul 18:29:42 18:31:11 14° 71° (ENE) 18:32:44 437.405
AO-7 06 Jul 18:39:39 18:42:22 11° 277° (W) 18:44:20 29.400- 29.500
GOMX 1 06 Jul 19:04:03 19:04:54 11° 63° (ENE) 19:06:02 467.674
MOZHAYETS 4 06 Jul 19:04:36 19:07:50 18° 294° (WNW) 19:10:56
CUTE-I 06 Jul 19:05:15 19:10:31 56° 260° (W) 19:15:49 437.470
Cosmos 2504 06 Jul 19:28:54 19:33:14 15° 279° (W) 19:37:14 435.465 / 435.565
DOVE 4 06 Jul 19:35:15 19:37:15 13° 65° (ENE) 19:39:26 437.250
BRITE-PL 06 Jul 19:36:31 19:41:25 38° 71° (ENE) 19:46:05 437.365/2234.400
CUBESAT XI-V 06 Jul 19:36:37 19:41:20 87° 288° (WNW) 19:45:59 437.345
Cubesat XI-IV 06 Jul 19:41:13 19:45:46 27° 266° (W) 19:50:14 437.490
SEEDS 06 Jul 19:49:41 19:50:40 11° 63° (ENE) 19:51:53 437.485
DANDE 06 Jul 19:49:46 19:52:23 43° 263° (W) 19:54:51 436.750
STRAND 1 06 Jul 19:51:28 19:56:21 43° 98° (E) 20:01:14 437.568
CINEMA 3 06 Jul 20:04:23 20:05:10 11° 64° (ENE) 20:06:14 145.822/145.860
CUSAT 1 06 Jul 20:12:55 20:13:40 11° 267° (W) 20:14:17 437.405
HO-68 06 Jul 20:13:59 20:20:43 48° 67° (ENE) 20:27:32 435.675
GONETS M04 06 Jul 20:15:12 20:23:47 61° 77° (ENE) 20:32:22
COMPASS 1 06 Jul 20:20:50 20:23:42 19° 67° (ENE) 20:26:43 437.405
PRISM 06 Jul 20:24:11 20:28:24 88° 284° (WNW) 20:32:34 437.425
Oscar 11 06 Jul 20:31:39 20:31:56 10° 62° (ENE) 20:32:27 145.826/435.025
CUBEBUG 2 06 Jul 20:36:19 20:37:07 11° 64° (ENE) 20:38:08 437.445
GOMX 1 06 Jul 20:37:24 20:42:30 86° 79° (E) 20:47:18 467.674
CUTE 1.7 + AOD 2 06 Jul 20:37:39 20:41:39 44° 73° (ENE) 20:45:42 437.475
CANX-2 06 Jul 20:41:17 20:45:23 54° 74° (ENE) 20:49:32 2200.000
Cosmos 2499 06 Jul 20:41:34 20:46:54 20° 63° (ENE) 20:52:52 435.465 / 435.565
FUNcube-1 06 Jul 21:02:03 21:03:34 12° 64° (ENE) 21:05:17 145.935
DOVE 4 06 Jul 21:09:47 21:14:37 71° 259° (WSW) 21:19:10 437.250
BRITE-PL 06 Jul 21:15:22 21:19:59 28° 266° (W) 21:24:19 437.365/2234.400
UWE-3 06 Jul 21:19:20 21:22:42 24° 69° (ENE) 21:26:08 435.000/436.395/437.385
SEEDS 06 Jul 21:21:46 21:25:56 71° 258° (WSW) 21:30:09 437.485
M-CUBED/EXP-1 PRIME 06 Jul 21:22:22 21:25:56 25° 100° (E) 21:29:46 437.505
DELFI C3 06 Jul 21:25:47 21:29:04 25° 70° (ENE) 21:32:26 145.870
AAUSAT CUBESAT 2 06 Jul 21:26:33 21:30:41 88° 81° (E) 21:34:53 437.432
STRAND 1 06 Jul 21:31:12 21:35:20 24° 294° (WNW) 21:39:20 437.568
CINEMA 3 06 Jul 21:37:26 21:41:55 77° 258° (WSW) 21:46:13 145.822/145.860
DX 1 06 Jul 21:45:50 21:48:18 15° 64° (ENE) 21:50:56 434.975-435.025
COMPASS 1 06 Jul 21:55:18 21:59:09 36° 263° (W) 22:03:01 437.405
HUMSAT D 06 Jul 21:59:25 22:02:33 22° 69° (ENE) 22:05:46 437.325/437.525
ZACube-1 06 Jul 22:00:22 22:04:26 53° 74° (ENE) 22:08:31 437.345
UKube-1 06 Jul 22:02:06 22:05:15 20° 66° (ENE) 22:08:30 .
HO-68 06 Jul 22:02:16 22:08:40 34° 265° (W) 22:14:58 435.675
Oscar 11 06 Jul 22:03:14 22:07:31 81° 258° (WSW) 22:11:52 145.826/435.025
CUBEBUG 2 06 Jul 22:09:04 22:13:20 73° 258° (WSW) 22:17:31 437.445
GONETS M04 06 Jul 22:12:56 22:20:09 29° 276° (W) 22:27:05
CUTE 1.7 + AOD 2 06 Jul 22:15:14 22:17:51 15° 270° (W) 22:20:19 437.475
AUBIESAT-1 06 Jul 22:19:42 22:24:02 88° 108° (ESE) 22:28:37 437.475
CANX-2 06 Jul 22:19:46 22:21:44 13° 272° (W) 22:23:30 2200.000
GOMX 1 06 Jul 22:20:32 22:21:15 10° 273° (W) 22:21:37 467.674
AISAT 06 Jul 22:32:34 22:36:15 27° 68° (ENE) 22:40:01 437.250
Cosmos 2499 06 Jul 22:33:09 22:41:07 85° 263° (W) 22:49:40 435.465 / 435.565
FUNcube-1 06 Jul 22:35:19 22:39:28 61° 259° (W) 22:43:36 145.935
ANTELSAT 06 Jul 22:37:47 22:39:45 13° 89° (E) 22:41:59 437.575/2403.000
CUBEBUG 1 06 Jul 22:43:03 22:46:03 19° 66° (ENE) 22:49:11 437.445
TIGRISAT 06 Jul 22:48:21 22:51:04 16° 91° (E) 22:54:00 435.000
50 SAT 06 Jul 22:49:50 22:53:24 39° 73° (ENE) 22:57:00 437.505
UWE-3 06 Jul 22:55:30 22:59:11 27° 265° (W) 23:02:45 435.000/436.395/437.385
M-CUBED/EXP-1 PRIME 06 Jul 22:56:52 23:00:45 33° 294° (WNW) 23:04:48 437.505
DELFI C3 06 Jul 23:00:46 23:04:06 24° 266° (W) 23:07:24 145.870
QB50P2 06 Jul 23:07:42 23:07:53 10° 87° (E) 23:08:21 145.880/145.840
ESTCUBE 1 06 Jul 23:13:16 23:17:34 44° 72° (ENE) 23:21:55 437.505/2401.250
DX 1 06 Jul 23:19:52 23:24:10 54° 260° (W) 23:28:28 434.975-435.025
VELOX 1 06 Jul 23:20:06 23:24:35 81° 76° (ENE) 23:29:04 145.980
UNISAT 6 06 Jul 23:28:04 23:32:18 45° 99° (E) 23:36:39 437.425
HUMSAT D 06 Jul 23:34:32 23:38:10 29° 264° (W) 23:41:45 437.325/437.525
SPROUT 06 Jul 23:35:06 23:38:03 19° 67° (ENE) 23:41:08 437.525
UKube-1 06 Jul 23:37:06 23:41:09 37° 262° (W) 23:45:13 .
ZACube-1 06 Jul 23:39:17 23:41:12 12° 271° (W) 23:42:54 437.345
QB50P1 06 Jul 23:43:37 23:47:09 26° 95° (E) 23:50:44 145.935-145.965
NANOSAT C BR1 06 Jul 23:56:31 00:00:24 36° 97° (E) 00:04:18 145.865
AUBIESAT-1 06 Jul 23:57:02 23:58:17 11° 302° (WNW) 23:59:18 437.475
DUCHIFAT 1 07 Jul 00:02:29 00:06:27 41° 98° (E) 00:10:25 145.980
TISAT 1 07 Jul 00:05:43 00:09:12 26° 69° (ENE) 00:12:45 437.305
PCSat 07 Jul 00:06:54 00:11:52 35° 51° (NE) 00:16:51 145.827
BUGSAT 1 07 Jul 00:08:03 00:11:37 30° 96° (E) 00:15:11 437.445
AISAT 07 Jul 00:08:49 00:12:45 29° 264° (W) 00:16:40 437.250
POLYITAN 1 07 Jul 00:10:51 00:15:00 55° 100° (E) 00:19:08 437.675
ANTELSAT 07 Jul 00:12:36 00:16:58 59° 286° (WNW) 00:21:23 437.575/2403.000
CUBEBUG 1 07 Jul 00:17:52 00:22:07 43° 262° (W) 00:26:22 437.445
TIGRISAT 07 Jul 00:23:53 00:28:06 46° 287° (WNW) 00:32:22 435.000
50 SAT 07 Jul 00:26:02 00:28:15 14° 269° (W) 00:30:19 437.505
Cosmos 2499 07 Jul 00:28:43 00:33:24 16° 279° (W) 00:37:43 435.465 / 435.565
ITUPSAT 1 07 Jul 00:33:36 00:34:07 10° 60° (ENE) 00:34:55 437.325
QB50P2 07 Jul 00:40:07 00:44:19 68° 285° (WNW) 00:48:30 145.880/145.840
POPSAT HIP 1 07 Jul 00:40:09 00:44:21 70° 285° (WNW) 00:48:31 437.405
SO-50 07 Jul 00:44:38 00:49:09 34° 47° (NE) 00:53:37 436.795
ESTCUBE 1 07 Jul 00:51:31 00:54:42 18° 269° (W) 00:57:44 437.505/2401.250
UNISAT 6 07 Jul 01:05:47 01:08:49 18° 294° (WNW) 01:11:43 437.425
SPROUT 07 Jul 01:09:49 01:13:53 40° 262° (W) 01:17:57 437.525
QB50P1 07 Jul 01:19:25 01:22:58 26° 291° (WNW) 01:26:26 145.935-145.965
NANOSAT C BR1 07 Jul 01:32:56 01:36:02 20° 293° (WNW) 01:39:00 145.865
RS-15 07 Jul 01:34:49 01:44:31 41° 109° (ESE) 01:54:40 29.354- 29.394
DUCHIFAT 1 07 Jul 01:39:08 01:41:58 17° 294° (WNW) 01:44:41 145.980
TISAT 1 07 Jul 01:41:16 01:44:56 27° 265° (W) 01:48:30 437.305
BUGSAT 1 07 Jul 01:43:49 01:46:57 21° 292° (WNW) 01:49:58 437.445
BEESAT 07 Jul 01:44:02 01:48:39 51° 72° (ENE) 01:53:18 436.000
POLYITAN 1 07 Jul 01:48:14 01:50:30 14° 295° (WNW) 01:52:34 437.675
PCSat 07 Jul 01:50:22 01:55:17 35° 249° (WSW) 02:00:06 145.827
SWISSCUBE 07 Jul 01:59:52 02:04:39 80° 75° (ENE) 02:09:28 437.505
AIST 1 07 Jul 02:04:02 02:07:06 19° 70° (ENE) 02:10:16
ITUPSAT 1 07 Jul 02:06:31 02:11:18 84° 78° (ENE) 02:16:09 437.325
Cosmos 2491 07 Jul 02:10:35 02:19:00 50° 74° (ENE) 02:27:24 435.465 / 435.565
KKS-1 07 Jul 02:16:02 02:19:06 19° 66° (ENE) 02:22:16 437.445
SO-50 07 Jul 02:25:13 02:29:42 34° 245° (WSW) 02:34:02 436.795
